Find Starlink 34073

NORAD ID: 64606 Int'l Des: 2025-137 Owner: SPXS Country: US Constellation: starlink operational
LEOCIRCULAR

当前视图

正在加载3D地球...

About Starlink 34073

Starlink 34073 (NORAD 64606) is a starlink constellation satellite (v2 mini) launched Jun 25, 2025 by SPXS of US. It operates in LEO, CIRCULAR orbit with a mass of 575.00 kg.

关于 Starlink 34073

正在加载描述...

即将过境

Passes for default location (London). Set your location on the main map for personalized predictions.

高度历史

Loading altitude history...

两行轨道根数

1 64606U 25137N 26195.04768193 .00024289 00000-0 82897-3 0 9993
2 64606 53.1580 108.1165 0001225 73.6273 286.4862 15.30221142 59962
Epoch: Jul 14, 2026 • Age: 14 hours

当前状态

高度 489.8 km
远地点 / 近地点 N/A
速度 7.62 km/s
星下点 -42.41°S, 94.99°W
发射日期 Jun 25, 2025
运行时间 1 year
类型 internet

技术详情

分类 Payload
质量 575.00 kg
干质量 530.00 kg
总质量 575.00 kg
长度 0.30 m
直径 4.10 m
跨度 29.00 m
形状 Box + pan
制造商 SPXS
平台类型 Starlink V2MO
阶段状态 In Orbit
所有者/国家 SPXS/US

Most Searched